Flag for U.S.A. Weather past 2 weeks in Kodiak, Alaska, U.S.A.

Now
46 °F

Passing clouds.


Feels Like: 43 °F
Forecast: 47 / 54 °F
Wind: 6 mph from West

Location: Kodiak Weather Reporting Station

Current Time: Sep 20, 2014 at 6:21:57 AM

Latest Report: Sep 20, 2014 at 4:53 AM


Visibility: 10 mi

Pressure: 29.50 "Hg

Humidity: 93%

Dew point: 44 °F

Location of KodiakLocation

Historic Weather in Kodiak — Graph

°F

Kodiak temperature yesterday

Maximum temperature yesterday: 60 °F (at 12:53 PM)
Minimum temperature yesterday: 44 °F (at 2:53 AM)
Average temperature yesterday: 53 °F

Past Weeks' High & Low Weather Summary

 TemperatureHumidityPressure
High66 °F (Sep 8, 5:53 PM)100% (Sep 11, 8:59 PM)30.08 "Hg (Sep 11, 8:59 PM)
Low41 °F (Sep 16, 5:53 AM)49% (Sep 19, 12:53 PM)28.99 "Hg (Sep 18, 7:53 AM)
Average54 °F85%29.65 "Hg
* Reported Sep 5 4:53 AM — Sep 20 4:53 AM, Kodiak, Weather by CustomWeather, © 2014

Note: Actual official high and low records may vary slightly from our data, if they occured in-between our weather recording intervals... More about our weather records

Advertising

Kodiak weather history for previous 24 hours

 ConditionsComfort  
Time TempWeatherWind HumidityBarometerVisibility
4:53 AM
Sep 20
46 °FPassing clouds.6 mph93%29.50 "Hg10 mi
3:53 AM48 °FOvercast.5 mph93%29.50 "Hg10 mi
2:53 AM49 °FLight rain. Mostly cloudy.5 mph93%29.50 "Hg10 mi
1:53 AM50 °FOvercast.No wind93%29.49 "Hg10 mi
12:53 AM51 °FLight rain. Overcast.5 mph89%29.49 "Hg10 mi
11:53 PM
Sep 19
51 °FLight rain. Overcast.5 mph86%29.49 "Hg10 mi
10:53 PM52 °FOvercast.No wind83%29.48 "Hg10 mi
9:53 PM52 °FMostly cloudy.6 mph83%29.46 "Hg10 mi
8:53 PM54 °FOvercast.No wind77%29.44 "Hg10 mi
7:53 PM56 °FMostly cloudy.5 mph70%29.41 "Hg10 mi
6:53 PM58 °FMostly cloudy.No wind60%29.39 "Hg10 mi
5:53 PM57 °FMostly cloudy.5 mph67%29.38 "Hg10 mi
4:53 PM57 °FMostly cloudy.3 mph64%29.37 "Hg10 mi
3:53 PM60 °FMostly cloudy.6 mph53%29.36 "Hg10 mi
2:53 PM60 °FPartly sunny.7 mph52%29.35 "Hg10 mi
1:53 PM59 °FBroken clouds.6 mph51%29.34 "Hg10 mi
12:53 PM60 °FPartly sunny.5 mph49%29.32 "Hg10 mi
11:53 AM59 °FScattered clouds.6 mph54%29.30 "Hg10 mi
10:53 AM58 °FScattered clouds.7 mph60%29.28 "Hg10 mi
9:53 AM53 °FScattered clouds.3 mph69%29.27 "Hg10 mi
8:53 AM49 °FScattered clouds.No wind74%29.24 "Hg10 mi
7:53 AM45 °FPassing clouds.3 mph80%29.23 "Hg10 mi
6:53 AM46 °FPassing clouds.6 mph79%29.21 "Hg10 mi
Weather by CustomWeather, © 2014

See weather overviewHow to use our weather pages